ORBCOMM FM118

Last updated on Fri Jun 19 2026 17:09:43 GMT+0000 (Coordinated Universal Time)

1 41183U 15081E 26169.91880297 .00001935 00000+0 44524-3 0 9999 2 41183 47.0047 353.5866 0002527 37.2659 322.8402 14.58881067557988
UTC large
Height (km)
Speed (km/s)
/
Latitude / Longitude
Inclination (degrees)
Orbital Period (minutes)
Azimuth
Elevation
Range (km)
Doppler Factor

Next 0 passes for location: London (51.5072 / 0.1276)

No passes found over London.
ORBCOMM FM118